| time (UTC) | temp F | wind direction | speed MPH | gust MPH | rain 1hr in | rain 24hr in | rain mn in | humidity % | barometer mb |
| 20260906150240 | 67 | 0 | 2.0 | 5.0 | 0.00 | 0.00 | 0.00 | 79 | 1005.6 |
| 20260906145519 | 67 | 45 | 1.0 | 5.0 | 0.00 | 0.00 | 0.00 | 80 | 1005.7 |
| 20260906145307 | 67 | 45 | 1.0 | 5.0 | 0.00 | 0.00 | 0.00 | 80 | 1005.7 |
| 20260906144346 | 67 | 22 | 3.0 | 6.0 | 0.00 | 0.00 | 0.00 | 81 | 1005.8 |
| 20260906143530 | 66 | 22 | 2.0 | 6.0 | 0.00 | 0.00 | 0.00 | 82 | 1005.7 |
| 20260906143455 | 66 | 22 | 2.0 | 6.0 | 0.00 | 0.00 | 0.00 | 82 | 1005.7 |
| 20260906142512 | 65 | 0 | 2.0 | 7.0 | 0.00 | 0.00 | 0.00 | 86 | 1005.7 |
| 20260906141706 | 64 | 0 | 3.0 | 6.0 | 0.00 | 0.00 | 0.00 | 86 | 1005.7 |
| 20260906140928 | 64 | 0 | 2.0 | 5.0 | 0.00 | 0.00 | 0.00 | 87 | 1005.8 |
| 20260906140752 | 64 | 0 | 2.0 | 5.0 | 0.00 | 0.00 | 0.00 | 87 | 1005.8 |
| 20260906135951 | 63 | 0 | 2.0 | 4.0 | 0.00 | 0.00 | 0.00 | 87 | 1005.8 |
| 20260906135825 | 63 | 0 | 2.0 | 4.0 | 0.00 | 0.00 | 0.00 | 87 | 1005.8 |
| 20260906134954 | 62 | 0 | 1.0 | 3.0 | 0.00 | 0.00 | 0.00 | 85 | 1005.9 |
| 20260906134841 | 62 | 0 | 1.0 | 3.0 | 0.00 | 0.00 | 0.00 | 85 | 1005.9 |
| 20260906134125 | 62 | 0 | 0.0 | 1.0 | 0.00 | 0.00 | 0.00 | 84 | 1005.9 |
| 20260906134011 | 62 | 0 | 0.0 | 1.0 | 0.00 | 0.00 | 0.00 | 84 | 1005.9 |
| 20260906133346 | 62 | 0 | 0.0 | 2.0 | 0.00 | 0.00 | 0.00 | 84 | 1006.0 |
| 20260906133050 | 62 | 0 | 0.0 | 2.0 | 0.00 | 0.00 | 0.00 | 84 | 1006.0 |
| 20260906132058 | 62 | 338 | 1.0 | 3.0 | 0.00 | 0.00 | 0.00 | 84 | 1005.9 |
| 20260906131156 | 62 | 338 | 1.0 | 3.0 | 0.00 | 0.00 | 0.00 | 83 | 1005.8 |
| 20260906130526 | 62 | 248 | 1.0 | 2.0 | 0.00 | 0.00 | 0.00 | 82 | 1005.9 |
| 20260906130216 | 62 | 248 | 1.0 | 2.0 | 0.00 | 0.00 | 0.00 | 82 | 1005.9 |
| 20260906125455 | 62 | 338 | 1.0 | 2.0 | 0.00 | 0.00 | 0.00 | 82 | 1005.7 |
| 20260906125235 | 62 | 338 | 1.0 | 2.0 | 0.00 | 0.00 | 0.00 | 82 | 1005.7 |
| 20260906124527 | 62 | 0 | 1.0 | 3.0 | 0.00 | 0.00 | 0.00 | 82 | 1005.7 |
| 20260906124236 | 62 | 0 | 1.0 | 3.0 | 0.00 | 0.00 | 0.00 | 82 | 1005.7 |
| 20260906123355 | 63 | 0 | 2.0 | 4.0 | 0.00 | 0.00 | 0.00 | 81 | 1005.7 |
| 20260906122451 | 63 | 0 | 2.0 | 4.0 | 0.00 | 0.00 | 0.00 | 81 | 1005.6 |
| 20260906121641 | 63 | 0 | 2.0 | 4.0 | 0.00 | 0.00 | 0.00 | 80 | 1005.6 |
| 20260906120725 | 63 | 22 | 1.0 | 3.0 | 0.00 | 0.00 | 0.00 | 80 | 1005.6 |
| 20260906120139 | 63 | 22 | 1.0 | 4.0 | 0.00 | 0.00 | 0.00 | 79 | 1005.6 |
| 20260906115801 | 63 | 22 | 1.0 | 4.0 | 0.00 | 0.00 | 0.00 | 79 | 1005.6 |
| 20260906112945 | 62 | 0 | 3.0 | 5.0 | 0.00 | 0.00 | 0.00 | 77 | 1005.6 |
| 20260906112131 | 62 | 338 | 1.0 | 4.0 | 0.00 | 0.00 | 0.00 | 77 | 1005.6 |
| 20260906111231 | 63 | 22 | 1.0 | 2.0 | 0.00 | 0.00 | 0.00 | 75 | 1005.5 |
| 20260906110527 | 63 | 0 | 0.0 | 1.0 | 0.00 | 0.00 | 0.00 | 74 | 1005.6 |
| 20260906110401 | 63 | 0 | 0.0 | 1.0 | 0.00 | 0.00 | 0.00 | 74 | 1005.6 |
| 20260906105526 | 63 | 338 | 1.0 | 2.0 | 0.00 | 0.00 | 0.00 | 74 | 1005.6 |
| 20260906104555 | 63 | 22 | 1.0 | 2.0 | 0.00 | 0.00 | 0.00 | 73 | 1005.7 |
| 20260906103704 | 63 | 292 | 1.0 | 2.0 | 0.00 | 0.00 | 0.00 | 72 | 1005.7 |
| 20260906103606 | 63 | 292 | 1.0 | 2.0 | 0.00 | 0.00 | 0.00 | 72 | 1005.7 |
| 20260906102910 | 63 | 0 | 0.0 | 2.0 | 0.00 | 0.00 | 0.00 | 71 | 1005.6 |
| 20260906102625 | 63 | 0 | 0.0 | 2.0 | 0.00 | 0.00 | 0.00 | 71 | 1005.6 |
| 20260906101821 | 64 | 338 | 1.0 | 2.0 | 0.00 | 0.00 | 0.00 | 70 | 1005.6 |
| 20260906100926 | 64 | 0 | 1.0 | 2.0 | 0.00 | 0.00 | 0.00 | 69 | 1005.5 |
| 20260906100054 | 64 | 22 | 1.0 | 2.0 | 0.00 | 0.00 | 0.00 | 69 | 1005.5 |
| 20260906095231 | 65 | 0 | 0.0 | 1.0 | 0.00 | 0.00 | 0.00 | 68 | 1005.5 |
| 20260906095201 | 65 | 0 | 0.0 | 1.0 | 0.00 | 0.00 | 0.00 | 68 | 1005.5 |
| 20260906094345 | 65 | 22 | 1.0 | 2.0 | 0.00 | 0.00 | 0.00 | 68 | 1005.6 |
| 20260906092501 | 66 | 0 | 3.0 | 7.0 | 0.00 | 0.00 | 0.00 | 67 | 1005.0 |
| 20260906091512 | 66 | 0 | 4.0 | 9.0 | 0.00 | 0.00 | 0.00 | 66 | 1004.6 |
| 20260906090703 | 66 | 0 | 3.0 | 5.0 | 0.00 | 0.00 | 0.00 | 64 | 1004.6 |
| 20260906090625 | 66 | 0 | 3.0 | 5.0 | 0.00 | 0.00 | 0.00 | 64 | 1004.6 |
| 20260906085914 | 67 | 0 | 3.0 | 6.0 | 0.00 | 0.00 | 0.00 | 62 | 1004.7 |
| 20260906085746 | 67 | 0 | 3.0 | 6.0 | 0.00 | 0.00 | 0.00 | 62 | 1004.7 |
| 20260906084107 | 67 | 0 | 3.0 | 7.0 | 0.00 | 0.00 | 0.00 | 61 | 1004.7 |
| 20260906083230 | 68 | 0 | 3.0 | 9.0 | 0.00 | 0.00 | 0.00 | 61 | 1004.7 |
| 20260906083147 | 68 | 0 | 3.0 | 9.0 | 0.00 | 0.00 | 0.00 | 61 | 1004.7 |
| 20260906082337 | 68 | 0 | 4.0 | 9.0 | 0.00 | 0.00 | 0.00 | 61 | 1004.7 |
| 20260906081425 | 68 | 0 | 4.0 | 9.0 | 0.00 | 0.00 | 0.00 | 61 | 1004.8 |
| 20260906080729 | 68 | 0 | 4.0 | 10.0 | 0.00 | 0.00 | 0.00 | 60 | 1004.7 |
| 20260906080600 | 68 | 0 | 4.0 | 10.0 | 0.00 | 0.00 | 0.00 | 60 | 1004.7 |
| 20260906075626 | 69 | 0 | 4.0 | 9.0 | 0.00 | 0.00 | 0.00 | 59 | 1004.8 |
| 20260906074946 | 69 | 0 | 2.0 | 7.0 | 0.00 | 0.00 | 0.00 | 59 | 1004.7 |
| 20260906074806 | 69 | 0 | 2.0 | 7.0 | 0.00 | 0.00 | 0.00 | 59 | 1004.7 |
| 20260906073901 | 69 | 0 | 3.0 | 7.0 | 0.00 | 0.00 | 0.00 | 56 | 1004.7 |
| 20260906072449 | 69 | 22 | 2.0 | 4.0 | 0.00 | 0.00 | 0.00 | 55 | 1004.9 |
| 20260906072121 | 69 | 22 | 2.0 | 4.0 | 0.00 | 0.00 | 0.00 | 55 | 1004.9 |
| 20260906071447 | 69 | 0 | 2.0 | 4.0 | 0.00 | 0.00 | 0.00 | 55 | 1005.0 |
| 20260906071301 | 69 | 0 | 2.0 | 4.0 | 0.00 | 0.00 | 0.00 | 55 | 1005.0 |
| 20260906070326 | 69 | 22 | 2.0 | 6.0 | 0.00 | 0.00 | 0.00 | 55 | 1004.9 |
| 20260906065441 | 69 | 45 | 1.0 | 3.0 | 0.00 | 0.00 | 0.00 | 56 | 1004.6 |
| 20260906065351 | 69 | 45 | 1.0 | 3.0 | 0.00 | 0.00 | 0.00 | 56 | 1004.6 |
| 20260906064411 | 69 | 0 | 1.0 | 3.0 | 0.00 | 0.00 | 0.00 | 54 | 1004.6 |
| 20260906063456 | 69 | 338 | 1.0 | 5.0 | 0.00 | 0.00 | 0.00 | 54 | 1004.7 |
| 20260906062556 | 69 | 292 | 1.0 | 3.0 | 0.00 | 0.00 | 0.00 | 53 | 1004.7 |
| 20260906061736 | 69 | 315 | 1.0 | 3.0 | 0.00 | 0.00 | 0.00 | 53 | 1004.9 |
| 20260906060911 | 69 | 315 | 1.0 | 2.0 | 0.00 | 0.00 | 0.00 | 56 | 1004.9 |
| 20260906060230 | 70 | 292 | 2.0 | 4.0 | 0.00 | 0.00 | 0.00 | 56 | 1005.4 |
| 20260906055930 | 70 | 292 | 2.0 | 4.0 | 0.00 | 0.00 | 0.00 | 56 | 1005.4 |
| 20260906055138 | 71 | 270 | 1.0 | 3.0 | 0.00 | 0.00 | 0.00 | 54 | 1005.1 |
| 20260906055006 | 71 | 270 | 1.0 | 3.0 | 0.00 | 0.00 | 0.00 | 54 | 1005.1 |
| 20260906054016 | 72 | 248 | 1.0 | 4.0 | 0.00 | 0.00 | 0.00 | 49 | 1005.0 |
| 20260906053100 | 72 | 68 | 1.0 | 3.0 | 0.00 | 0.00 | 0.00 | 49 | 1004.9 |
| 20260906052210 | 72 | 68 | 2.0 | 5.0 | 0.00 | 0.00 | 0.00 | 49 | 1004.9 |
| 20260906051220 | 72 | 68 | 2.0 | 5.0 | 0.00 | 0.00 | 0.00 | 51 | 1004.8 |
| 20260906050323 | 72 | 45 | 3.0 | 5.0 | 0.00 | 0.00 | 0.00 | 50 | 1004.7 |
| 20260906050240 | 72 | 45 | 3.0 | 5.0 | 0.00 | 0.00 | 0.00 | 50 | 1004.7 |
| 20260906045349 | 73 | 225 | 1.0 | 2.0 | 0.00 | 0.00 | 0.00 | 55 | 1004.7 |
| 20260906045240 | 73 | 225 | 1.0 | 2.0 | 0.00 | 0.00 | 0.00 | 55 | 1004.7 |
| 20260906044455 | 73 | 0 | 0.0 | 2.0 | 0.00 | 0.00 | 0.00 | 52 | 1004.8 |
| 20260906044326 | 73 | 0 | 0.0 | 2.0 | 0.00 | 0.00 | 0.00 | 52 | 1004.8 |
| 20260906043501 | 73 | 180 | 2.0 | 6.0 | 0.00 | 0.00 | 0.00 | 50 | 1004.7 |
| 20260906042636 | 74 | 90 | 1.0 | 2.0 | 0.00 | 0.00 | 0.00 | 45 | 1004.5 |
| 20260906041641 | 74 | 45 | 1.0 | 3.0 | 0.00 | 0.00 | 0.00 | 45 | 1004.1 |
| 20260906040831 | 75 | 22 | 2.0 | 4.0 | 0.00 | 0.00 | 0.00 | 45 | 1003.9 |
| 20260906040740 | 75 | 22 | 2.0 | 4.0 | 0.00 | 0.00 | 0.00 | 45 | 1003.9 |
| 20260906034920 | 75 | 22 | 3.0 | 9.0 | 0.00 | 0.00 | 0.00 | 43 | 1003.6 |
| 20260906034035 | 76 | 0 | 4.0 | 8.0 | 0.00 | 0.00 | 0.00 | 44 | 1003.7 |
| 20260906033056 | 76 | 0 | 4.0 | 6.0 | 0.00 | 0.00 | 0.00 | 43 | 1003.6 |
| 20260906032313 | 77 | 0 | 4.0 | 6.0 | 0.00 | 0.00 | 0.00 | 41 | 1003.6 |
| 20260906032225 | 77 | 0 | 4.0 | 6.0 | 0.00 | 0.00 | 0.00 | 41 | 1003.6 |
| 20260906030421 | 78 | 45 | 3.0 | 6.0 | 0.00 | 0.00 | 0.00 | 40 | 1003.1 |
| 20260906025611 | 78 | 0 | 3.0 | 6.0 | 0.00 | 0.00 | 0.00 | 39 | 1003.0 |
| 20260906024757 | 77 | 0 | 3.0 | 5.0 | 0.00 | 0.00 | 0.00 | 38 | 1002.8 |
| 20260906023841 | 77 | 22 | 1.0 | 3.0 | 0.00 | 0.00 | 0.00 | 42 | 1002.9 |
| 20260906023801 | 77 | 22 | 1.0 | 3.0 | 0.00 | 0.00 | 0.00 | 42 | 1002.9 |
| 20260906022845 | 78 | 0 | 1.0 | 2.0 | 0.00 | 0.00 | 0.00 | 38 | 1002.8 |
| 20260906022805 | 78 | 0 | 1.0 | 2.0 | 0.00 | 0.00 | 0.00 | 38 | 1002.8 |
| 20260906021913 | 78 | 22 | 2.0 | 6.0 | 0.00 | 0.00 | 0.00 | 39 | 1002.8 |
| 20260906021836 | 78 | 22 | 2.0 | 6.0 | 0.00 | 0.00 | 0.00 | 39 | 1002.8 |
| 20260906020916 | 77 | 292 | 4.0 | 10.0 | 0.00 | 0.00 | 0.00 | 40 | 1002.5 |
| 20260906020051 | 78 | 292 | 4.0 | 10.0 | 0.00 | 0.00 | 0.00 | 41 | 1002.4 |
| 20260906015126 | 78 | 338 | 2.0 | 5.0 | 0.00 | 0.00 | 0.00 | 38 | 1002.4 |
| 20260906014405 | 79 | 292 | 2.0 | 5.0 | 0.00 | 0.00 | 0.00 | 38 | 1002.1 |
| 20260906014216 | 79 | 292 | 2.0 | 5.0 | 0.00 | 0.00 | 0.00 | 38 | 1002.1 |
| 20260906013316 | 80 | 292 | 3.0 | 6.0 | 0.00 | 0.00 | 0.00 | 37 | 1002.1 |
| 20260906012511 | 81 | 292 | 4.0 | 7.0 | 0.00 | 0.00 | 0.00 | 39 | 1002.1 |
| 20260906010716 | 83 | 270 | 6.0 | 10.0 | 0.00 | 0.00 | 0.00 | 34 | 1002.1 |
| 20260906005816 | 84 | 315 | 5.0 | 11.0 | 0.00 | 0.00 | 0.00 | 33 | 1002.2 |
| 20260906004919 | 84 | 270 | 7.0 | 12.0 | 0.00 | 0.00 | 0.00 | 32 | 1002.3 |
| 20260906004056 | 84 | 292 | 6.0 | 13.0 | 0.00 | 0.00 | 0.00 | 31 | 1002.4 |
| 20260906003531 | 84 | 292 | 5.0 | 14.0 | 0.00 | 0.00 | 0.00 | 32 | 1002.3 |
| 20260906003216 | 84 | 292 | 5.0 | 14.0 | 0.00 | 0.00 | 0.00 | 32 | 1002.3 |
| 20260906002335 | 83 | 292 | 5.0 | 11.0 | 0.00 | 0.00 | 0.00 | 32 | 1002.1 |
| 20260906001510 | 83 | 270 | 6.0 | 10.0 | 0.00 | 0.00 | 0.00 | 36 | 1002.1 |
| 20260906000706 | 84 | 270 | 4.0 | 9.0 | 0.00 | 0.00 | 0.00 | 39 | 1002.2 |
| 20260905235826 | 85 | 270 | 5.0 | 10.0 | 0.00 | 0.00 | 0.00 | 34 | 1002.2 |
| 20260905234840 | 86 | 270 | 4.0 | 6.0 | 0.00 | 0.00 | 0.00 | 32 | 1002.1 |
| 20260905234006 | 86 | 315 | 5.0 | 12.0 | 0.00 | 0.00 | 0.00 | 31 | 1002.0 |
| 20260905233011 | 87 | 0 | 0.0 | 2.0 | 0.00 | 0.00 | 0.00 | 32 | 1002.0 |
| 20260905232011 | 88 | 22 | 1.0 | 2.0 | 0.00 | 0.00 | 0.00 | 32 | 1001.9 |
| 20260905231021 | 88 | 270 | 1.0 | 3.0 | 0.00 | 0.00 | 0.00 | 28 | 1001.8 |
| 20260905230147 | 88 | 248 | 1.0 | 4.0 | 0.00 | 0.00 | 0.00 | 26 | 1001.7 |
| 20260905225245 | 89 | 315 | 1.0 | 3.0 | 0.00 | 0.00 | 0.00 | 26 | 1001.7 |
| 20260905224435 | 89 | 0 | 2.0 | 6.0 | 0.00 | 0.00 | 0.00 | 28 | 1001.7 |
| 20260905223510 | 89 | 0 | 2.0 | 6.0 | 0.00 | 0.00 | 0.00 | 27 | 1001.7 |
| 20260905222551 | 89 | 0 | 2.0 | 5.0 | 0.00 | 0.00 | 0.00 | 27 | 1001.7 |
| 20260905221736 | 90 | 0 | 2.0 | 6.0 | 0.00 | 0.00 | 0.00 | 26 | 1001.7 |
| 20260905220046 | 91 | 90 | 4.0 | 8.0 | 0.00 | 0.00 | 0.00 | 25 | 1001.7 |
| 20260905215131 | 92 | 68 | 4.0 | 7.0 | 0.00 | 0.00 | 0.00 | 22 | 1002.0 |
| 20260905213430 | 93 | 68 | 4.0 | 9.0 | 0.00 | 0.00 | 0.00 | 25 | 1002.1 |
| 20260905212631 | 93 | 0 | 3.0 | 9.0 | 0.00 | 0.00 | 0.00 | 27 | 1002.1 |
| 20260905211741 | 93 | 0 | 4.0 | 12.0 | 0.00 | 0.00 | 0.00 | 26 | 1002.2 |
| 20260905210851 | 93 | 45 | 2.0 | 6.0 | 0.00 | 0.00 | 0.00 | 22 | 1002.4 |
| 20260905205920 | 92 | 135 | 1.0 | 4.0 | 0.00 | 0.00 | 0.00 | 27 | 1002.6 |
| 20260905204221 | 91 | 90 | 3.0 | 6.0 | 0.00 | 0.00 | 0.00 | 24 | 1002.8 |
| 20260905203320 | 92 | 90 | 2.0 | 9.0 | 0.00 | 0.00 | 0.00 | 25 | 1002.8 |
| 20260905202321 | 93 | 68 | 3.0 | 6.0 | 0.00 | 0.00 | 0.00 | 30 | 1002.8 |
| 20260905201516 | 92 | 158 | 2.0 | 5.0 | 0.00 | 0.00 | 0.00 | 29 | 1002.9 |
| 20260905200646 | 92 | 158 | 3.0 | 7.0 | 0.00 | 0.00 | 0.00 | 28 | 1002.9 |
| 20260905194851 | 93 | 45 | 4.0 | 8.0 | 0.00 | 0.00 | 0.00 | 25 | 1003.1 |
| 20260905194051 | 93 | 22 | 2.0 | 4.0 | 0.00 | 0.00 | 0.00 | 26 | 1003.1 |
| 20260905193205 | 92 | 45 | 4.0 | 7.0 | 0.00 | 0.00 | 0.00 | 24 | 1003.4 |
| 20260905192211 | 92 | 112 | 4.0 | 7.0 | 0.00 | 0.00 | 0.00 | 28 | 1003.4 |
| 20260905191321 | 92 | 135 | 4.0 | 6.0 | 0.00 | 0.00 | 0.00 | 26 | 1003.5 |
| 20260905190415 | 91 | 202 | 3.0 | 4.0 | 0.00 | 0.00 | 0.00 | 29 | 1003.5 |
| 20260905185606 | 91 | 180 | 2.0 | 5.0 | 0.00 | 0.00 | 0.00 | 27 | 1003.6 |
| 20260905184710 | 91 | 158 | 2.0 | 4.0 | 0.00 | 0.00 | 0.00 | 29 | 1003.7 |
| 20260905183748 | 90 | 180 | 3.0 | 6.0 | 0.00 | 0.00 | 0.00 | 30 | 1003.8 |
| 20260905182751 | 89 | 158 | 2.0 | 6.0 | 0.00 | 0.00 | 0.00 | 31 | 1004.1 |
| 20260905181950 | 87 | 135 | 2.0 | 6.0 | 0.00 | 0.00 | 0.00 | 33 | 1004.1 |
| 20260905181127 | 88 | 112 | 3.0 | 7.0 | 0.00 | 0.00 | 0.00 | 34 | 1004.1 |
| 20260905180258 | 89 | 135 | 3.0 | 7.0 | 0.00 | 0.00 | 0.00 | 30 | 1004.3 |
| 20260905175411 | 88 | 45 | 2.0 | 4.0 | 0.00 | 0.00 | 0.00 | 33 | 1004.4 |
| 20260905174525 | 86 | 135 | 5.0 | 10.0 | 0.00 | 0.00 | 0.00 | 32 | 1004.5 |
| 20260905173705 | 86 | 135 | 4.0 | 7.0 | 0.00 | 0.00 | 0.00 | 37 | 1004.5 |
| 20260905172826 | 83 | 135 | 2.0 | 10.0 | 0.00 | 0.00 | 0.00 | 39 | 1004.5 |
| 20260905171941 | 83 | 112 | 3.0 | 7.0 | 0.00 | 0.00 | 0.00 | 37 | 1004.6 |
| 20260905171126 | 82 | 68 | 3.0 | 6.0 | 0.00 | 0.00 | 0.00 | 37 | 1004.6 |
| 20260905170236 | 82 | 90 | 3.0 | 6.0 | 0.00 | 0.00 | 0.00 | 40 | 1004.6 |
| 20260905165356 | 81 | 112 | 2.0 | 7.0 | 0.00 | 0.00 | 0.00 | 40 | 1004.7 |
| 20260905164441 | 80 | 112 | 2.0 | 5.0 | 0.00 | 0.00 | 0.00 | 42 | 1004.7 |
| 20260905163546 | 79 | 90 | 3.0 | 7.0 | 0.00 | 0.00 | 0.00 | 45 | 1004.7 |
| 20260905162621 | 78 | 45 | 2.0 | 4.0 | 0.00 | 0.00 | 0.00 | 46 | 1004.7 |
| 20260905161656 | 78 | 68 | 1.0 | 3.0 | 0.00 | 0.00 | 0.00 | 44 | 1004.8 |
| 20260905160706 | 78 | 112 | 2.0 | 5.0 | 0.00 | 0.00 | 0.00 | 45 | 1004.7 |
| 20260905155713 | 78 | 45 | 2.0 | 4.0 | 0.00 | 0.00 | 0.00 | 46 | 1004.6 |
| 20260905153941 | 77 | 112 | 3.0 | 6.0 | 0.00 | 0.00 | 0.00 | 47 | 1004.6 |
| 20260905152951 | 77 | 112 | 1.0 | 3.0 | 0.00 | 0.00 | 0.00 | 52 | 1004.5 |
| 20260905151046 | 73 | 112 | 1.0 | 4.0 | 0.00 | 0.00 | 0.00 | 56 | 1004.5 |